{"data":{"norad_id":50159,"intl_designator":"2021-125D","name":"STARLINK-3297","alt_names":[],"object_type":"PAYLOAD","status":"ACTIVE","operator":null,"country":"US","launch_date":"2021-12-18","launch_site_code":"AFWTR","launch_vehicle":null,"mission":null,"orbit_class":"UNKNOWN","rcs_meters":null,"size_class":null,"mass_kg":null,"dimensions":null,"purposes":["comms"],"wikipedia_slug":null,"has_3d_model":false,"image_url":null,"decayed_at":null,"tle_current":{"epoch":"2026-05-24T14:33:24.519456Z","epoch_age_seconds":108793,"freshness":"FRESH","line1":"1 50159U 21125D   26144.60653379 -.00000405  00000+0 -73270-5 0  9991","line2":"2 50159  53.2158 278.3277 0001509  96.5589 263.5575 15.08830735247915","mean_motion":15.08830735,"eccentricity":0.0001509,"inclination_deg":53.2158,"raan_deg":278.3277,"arg_perigee_deg":96.5589,"mean_anomaly_deg":263.5575,"bstar":-7.327e-6,"rev_number":24791,"period_min":95.438140713643,"perigee_km":538.72779608338,"apogee_km":540.81562093161,"semimajor_km":6917.9087085075,"source":"CELESTRAK","updated_at":"2026-05-25T13:38:16.841916Z"}}}